Location: Buckeye Ditch
(40.9104°N, 122.9517°W)
Time: 13:45:14
(UTC+00:00)

Courier 1B Rocket - All Passes

Search period start: 18 May 2025 00:00
Search period end: 28 May 2025 00:00
Orbit: 920 x 1201 km, 28.3° (Epoch: 17 May)

Date Brightness Start Highest point End Pass type
(mag) Time Alt. Az. Time Alt. Az. Time Alt. Az.
18 May - 00:42:03 10° WSW 00:46:56 19° SSW 00:51:39 10° SSE daylight
18 May - 18:04:07 10° S 18:07:33 13° SSE 18:10:59 10° SE daylight
18 May - 19:53:57 10° SW 20:00:11 26° SSE 20:06:23 10° ESE daylight
18 May - 21:46:24 10° WSW 21:53:06 31° S 21:59:36 10° ESE daylight
18 May - 23:40:07 10° WSW 23:45:54 23° SSW 23:51:28 10° SSE daylight
19 May - 18:53:20 10° SSW 18:59:02 23° SSE 19:04:46 10° ESE daylight
19 May - 20:45:12 10° SW 20:51:52 31° S 20:58:29 10° ESE daylight
19 May - 22:38:27 10° WSW 22:44:47 27° SSW 22:50:55 10° SE daylight
20 May - 00:33:35 10° SW 00:37:21 14° SSW 00:41:03 10° S daylight
20 May - 17:53:07 10° SSW 17:57:56 18° SSE 18:02:49 10° ESE daylight
20 May - 19:44:10 10° SW 19:50:39 30° S 19:57:11 10° ESE daylight
20 May - 21:37:00 10° WSW 21:43:36 30° S 21:50:06 10° SE daylight
20 May - 23:31:12 10° WSW 23:36:20 19° SSW 23:41:22 10° SSE daylight
21 May - 16:53:41 10° S 16:56:54 13° SSE 17:00:11 10° SE daylight
21 May - 18:43:21 10° SW 18:49:29 26° SSE 18:55:44 10° ESE daylight
21 May - 20:35:42 10° WSW 20:42:24 32° S 20:49:04 10° ESE daylight
21 May - 22:29:19 10° WSW 22:35:15 24° SSW 22:41:05 10° SSE daylight
22 May - 00:27:06 10° SW 00:27:45 10° SSW 00:28:23 10° SSW daylight
22 May - 17:42:50 10° SSW 17:48:22 22° SSE 17:54:02 10° ESE daylight
22 May - 19:34:35 10° SW 19:41:10 31° S 19:47:52 10° ESE daylight
22 May - 21:27:44 10° WSW 21:34:06 28° SSW 21:40:25 10° SE daylight
22 May - 23:22:44 10° WSW 23:26:46 15° SSW 23:30:43 10° S daylight
23 May - 16:42:44 10° SSW 16:47:18 17° SSE 16:52:00 10° ESE daylight
23 May - 18:33:38 10° SW 18:39:59 29° S 18:46:29 10° ESE daylight
23 May - 20:26:21 10° WSW 20:32:54 30° S 20:39:30 10° SE daylight
23 May - 22:20:26 10° WSW 22:25:41 20° SSW 22:30:54 10° SSE daylight
24 May - 15:43:29 10° S 15:46:20 13° SSE 15:49:13 10° SE daylight
24 May - 17:32:55 10° SW 17:38:50 26° SSE 17:44:57 10° ESE daylight
24 May - 19:25:09 10° WSW 19:31:41 32° S 19:38:23 10° ESE daylight
24 May - 21:18:39 10° WSW 21:24:34 24° SSW 21:30:30 10° SSE daylight
24 May - 23:15:51 10° SW 23:17:07 10° SSW 23:18:23 10° SSW daylight
25 May - 16:32:30 10° SSW 16:37:45 22° SSE 16:43:12 10° ESE daylight
25 May - 18:24:07 10° SW 18:30:30 31° S 18:37:06 10° ESE daylight
25 May - 20:17:09 10° WSW 20:23:24 28° S 20:29:45 10° SE daylight
25 May - 22:12:01 10° WSW 22:16:06 15° SSW 22:20:10 10° S daylight
26 May - 15:32:32 10° SSW 15:36:45 17° SSE 15:41:07 10° ESE daylight
26 May - 17:23:16 10° SW 17:29:20 29° S 17:35:40 10° ESE daylight
26 May - 19:15:51 10° WSW 19:22:13 30° S 19:28:46 10° SE daylight
26 May - 21:09:50 10° WSW 21:15:01 19° SSW 21:20:14 10° SSE daylight
27 May - 14:33:32 10° S 14:35:50 12° SSE 14:38:10 10° SE daylight
27 May - 16:22:40 10° SW 16:28:15 25° SSE 16:34:06 10° ESE daylight
27 May - 18:14:45 10° WSW 18:21:02 31° S 18:27:35 10° ESE daylight
27 May - 20:08:08 10° WSW 20:13:53 24° SSW 20:19:46 10° SSE daylight
27 May - 22:05:19 10° SW 22:06:29 10° SSW 22:07:38 10° SSW daylight
